Regional Weather Roundup
Issued by NWS

Home | Current Version | Previous Version | Text Only | Print | Product List | Glossary On
Versions: 1 2 3 4 5 6 7 8 9 10 11 12 13 14 15 16 17 18 19 20 21 22 23 24 25 26 27 28 29 30 31 32 33 34 35 36 37 38 39 40 41 42 43 44 45 46 47 48 49 50
851
ASUS43 KFSD 221010
RWRSD

WEATHER ROUNDUP FOR SOUTH DAKOTA
NATIONAL WEATHER SERVICE SIOUX FALLS SD
400 AM CST MON JAN 22 2018

NOTE: "FAIR" INDICATES FEW OR NO CLOUDS BELOW 12,000 FEET WITH NO
SIGNIFICANT WEATHER AND/OR OBSTRUCTIONS TO VISIBILITY.


SDZ001>005-009-010-012>017-221100-
NORTHWEST AND NORTH CENTRAL SOUTH DAKOTA

CITY           SKY/WX    TMP DP  RH WIND       PRES   REMARKS
BUFFALO          N/A     19  12  74 W6        29.91F WCI  11
FAITH            N/A     19  17  92 NW8       29.95F WCI   9
MOBRIDGE       FOG       23  20  88 N7        29.96R VSB 1/4 WCI  15
$$

SDZ012>016-024>037-041>051-057-063-072>074-221100-
SOUTHWEST AND SOUTH CENTRAL SOUTH DAKOTA

CITY           SKY/WX    TMP DP  RH WIND       PRES   REMARKS
RAPID CTY ARPT CLEAR     28  18  66 N17       29.95S WCI  16
PIERRE         FOG       23  23 100 N8        29.97S VSB 3/4 WCI  14
CUSTER         PTCLDY    22   9  57 NE5       29.88S WCI  16
ELLSWORTH AFB  CLEAR     29  18  63 N17       29.94S WCI  17
PHILIP         CLOUDY    23  21  92 NW8       29.97R WCI  14
PINE RIDGE     MOCLDY    21  18  88 W8        29.97R WCI  11
SPEARFISH        N/A     21  14  73 W7        29.97F WCI  13
WINNER         CLOUDY    27  25  92 N15       29.91S FOG     WCI  15
$$

SDZ004>011-016>023-039-040-221100-
NORTHEAST SOUTH DAKOTA

CITY           SKY/WX    TMP DP  RH WIND       PRES   REMARKS
ABERDEEN       CLOUDY    23  22  96 N15       29.98F WCI  10
WATERTOWN      FOG       21  21 100 N18G28    29.88F VSB 1/2 WCI   6
BROOKINGS      LGT SNOW  25  23  92 N20       29.82F FOG     WCI  11
SISSETON         N/A     24  23  96 N15       29.98S WCI  11
$$

SDZ017-020-022-023-036>040-048>070-221100-
SOUTHEAST SOUTH DAKOTA

CITY           SKY/WX    TMP DP  RH WIND       PRES   REMARKS
SIOUX FALLS    MIX PCPN  30  27  88 N30G38    29.72F FOG     WCI  15
HURON          CLOUDY    24  23  96 N17       29.92F WCI  11
CHAMBERLAIN    CLOUDY    26  26  99 NW16G23   29.91F WCI  14
MITCHELL       CLOUDY    27  25  92 N16       29.86F WCI  15
YANKTON        MIX PCPN  32  30  93 N21G30    29.71F WCI  20
$$

ABBREVIATIONS USED IN REMARKS
   TC - TEMPERATURE IN CELSIUS
  WCI - WIND CHILL INDEX
   HX - HEAT INDEX
  VSB - VISIBILITY





USA.gov is the U.S. government's official web portal to all federal, state and local government web resources and services.